Location: Barcelona
(41.3830°N, 2.1830°E)
Time: 22:53:23
(UTC+02:00)

ISS - Pass Details

Date: 21 July 2017
Orbit: 400 x 408 km, 51.6° (Epoch: 24 July)

Event Time Altitude Azimuth Distance (km) Brightness Sun altitude
Exits shadow 02:01:52 18° 353° (N) 1,083 -0.9 -28.1°
Drops below altitude 10° 02:03:52 10° 30° (NNE) 1,455 -0.3 -28.1°
Sets 02:06:25 0° 51° (NE) 2,317 0.6 -28.1°
